COSMOS 2251 DEB

Last updated on Sat Sep 05 2026 00:02:38 GMT+0000 (Coordinated Universal Time)

1 53093U 93036BYP 26247.16897748 .00001051 00000+0 32051-3 0 9992 2 53093 74.0357 168.9448 0021222 191.2892 168.7792 14.43061304215531
UTC large
Height (km)
Speed (km/s)
/
Latitude / Longitude
Inclination (degrees)
Orbital Period (minutes)
Azimuth
Elevation
Range (km)
Doppler Factor

Next 0 passes for location: London (51.5072 / 0.1276)

No passes found over London.
COSMOS 2251 DEB